Regional Weather Roundup
Issued by NWS

Home | Current Version | Previous Version | Graphics & Text | Print | Product List | Glossary On
Versions: 1 2 3 4 5 6 7 8 9 10 11 12 13 14 15 16 17 18 19 20 21 22 23 24 25 26 27 28 29 30 31 32 33 34 35 36 37 38 39
000
ASUS45 KBOI 262210
RWRID
WEATHER ROUNDUP FOR IDAHO
NATIONAL WEATHER SERVICE BOISE ID
300 PM MST FRI DEC 26 2014

NOTE: "FAIR" INDICATES FEW OR NO CLOUDS BELOW 12000 FEET
WITH NO SIGNIFICANT WEATHER AND/OR OBSTRUCTIONS TO VISIBILITY

IDZ012-014-262300-
SOUTHWEST IDAHO


CITY           SKY/WX    TMP DP  RH WIND       PRES   REMARKS
BOISE          PTSUNNY   36  25  64 NW14      30.21R WCI  27
CALDWELL       SUNNY     39  21  48 SW13G21   30.25R WCI  32
MOUNTAIN HOME  SUNNY     35  26  69 NW23      30.18R WCI  23
$$

IDZ016-017-262300-
SOUTHCENTRAL IDAHO


CITY           SKY/WX    TMP DP  RH WIND       PRES   REMARKS
BURLEY         CLOUDY    24  18  77 W3        30.12R
JEROME         MOSUNNY   24  18  77 S6        30.13R WCI  17
TWIN FALLS     CLOUDY    30  21  69 W9        30.13R WCI  22
$$

IDZ019>023-262300-
SOUTHEAST IDAHO


CITY           SKY/WX    TMP DP  RH WIND       PRES   REMARKS
IDAHO FALLS    MOSUNNY   19  14  81 S8        30.07R WCI   9
POCATELLO      PTSUNNY   24  20  84 SW15      30.09S WCI  11
REXBURG        CLOUDY    16  11  80 SW3       30.05R
$$

IDZ006-010-011-018-031-032-262300-
CENTRAL IDAHO MOUNTAINS


CITY           SKY/WX    TMP DP  RH WIND       PRES   REMARKS
MCCALL         FLURRIES  25  16  68 NW6       30.11R WCI  18
HAILEY         MOSUNNY   21  10  63 SE9       30.07R WCI  11
STANLEY          N/A     22   9  57 VRB3      30.03R
SALMON         CLOUDY    25  18  74 CALM      30.11S
CHALLIS        PTSUNNY   24  13  62 NW3       30.07R
$$

IDZ002-004-006-007-026-262300-
NORTHERN IDAHO


CITY           SKY/WX    TMP DP  RH WIND       PRES   REMARKS
LEWISTON       PTSUNNY   41  27  57 NW3       30.27S
LOWELL           N/A     36  33  89 CALM      30.30R
COEUR D`ALENE  CLOUDY    27  25  93 CALM      30.24R
MULLAN PASS    LGT SNOW  19  14  81 VRB3      30.04R
$$


USA.gov is the U.S. government's official web portal to all federal, state and local government web resources and services.